Sitka, AK

2:31 PM AKDT on May 25, 2017 (GMT -0800)
Sitka Rocky Gutierrez

Weather History for PASI - September, 2012

Change the Weather History Date:

Monday, September 24, 2012

  Actual Average Record
Temperature  
Mean Temperature 50 °F -  
Max Temperature 55 °F 56 °F 65 °F (1976)
Min Temperature 46 °F 46 °F 35 °F (1972)
Degree Days  
Heating Degree Days 14    
Moisture  
Dew Point 49 °F    
Average Humidity 94    
Maximum Humidity 100    
Minimum Humidity 82    
Precipitation  
Precipitation 0.16 in - - ()
Sea Level Pressure  
Sea Level Pressure 30.19 in    
Wind  
Wind Speed 6 mph (SE)    
Max Wind Speed 10 mph    
Max Gust Speed -    
Visibility 8 miles    
Events Rain    
Averages and records for this station are not official NWS values.
T = Trace of Precipitation, MM = Missing Value Source: NWS Daily Summary

Daily Weather History Graph

Daily Weather History Graph

Search for Another Location

Airport or City:

Trip Planner

Search our weather history database for the weather conditions in past years. The results will help you decide how hot, cold, wet, or windy it might be!

Date:

Astronomy

Sep. 24, 2012 Rise Set
Actual Time 6:51 AM AKDT 6:53 PM AKDT
Civil Twilight 6:13 AM AKDT 7:31 PM AKDT
Nautical Twilight 5:28 AM AKDT 8:16 PM AKDT
Astronomical Twilight 4:40 AM AKDT 9:04 PM AKDT
Moon 4:34 PM AKDT (9/24) 12:17 AM AKDT (9/24)
Length of Visible Light 13h 17m
Length of Day
12h 01m
Waxing Gibbous, 72% of the Moon is Illuminated
Sep 24
Waxing Gibbous
Sep 29
Full
Oct 7
Last Quarter
Oct 15
New
Oct 21
First Quarter

Hourly Weather History & Observations

Time (AKDT) Temp. Dew Point Humidity Pressure Visibility Wind Dir Wind Speed Gust Speed Precip Events Conditions
12:53 AM 52.0 °F 48.9 °F 89% 30.11 in 10.0 mi ESE 9.2 mph - 0.04 in Rain Light Rain
1:53 AM 50.0 °F 48.0 °F 93% 30.11 in 10.0 mi East 10.4 mph - 0.00 in   Overcast
2:53 AM 50.0 °F 46.9 °F 89% 30.11 in 10.0 mi ESE 9.2 mph - N/A   Mostly Cloudy
3:53 AM 48.9 °F 46.9 °F 93% 30.12 in 10.0 mi East 6.9 mph - N/A   Mostly Cloudy
4:53 AM 48.0 °F 46.0 °F 93% 30.13 in 10.0 mi ESE 5.8 mph - N/A   Clear
5:53 AM 46.9 °F 46.0 °F 97% 30.14 in 10.0 mi East 8.1 mph - N/A   Scattered Clouds
6:53 AM 48.9 °F 46.0 °F 90% 30.14 in 10.0 mi SE 6.9 mph - N/A   Overcast
7:53 AM 48.9 °F 46.0 °F 90% 30.15 in 10.0 mi East 5.8 mph - N/A   Overcast
8:53 AM 51.1 °F 46.0 °F 83% 30.15 in 10.0 mi ESE 6.9 mph - N/A   Overcast
9:38 AM 51.8 °F 46.4 °F 82% 30.16 in 8.0 mi SSE 6.9 mph - N/A   Overcast
9:53 AM 51.1 °F 46.9 °F 86% 30.17 in 8.0 mi SSE 3.5 mph - 0.00 in Rain Light Rain
10:53 AM 52.0 °F 46.9 °F 83% 30.18 in 10.0 mi ESE 5.8 mph - 0.00 in   Overcast
11:53 AM 51.1 °F 48.9 °F 92% 30.19 in 3.0 mi SE 6.9 mph - 0.04 in Rain Light Rain
12:53 PM 51.1 °F 51.1 °F 100% 30.20 in 3.0 mi SSE 3.5 mph - 0.02 in Rain Light Rain
12:55 PM 51.8 °F 51.8 °F 100% 30.20 in 2.5 mi SE 3.5 mph - 0.00 in Rain Light Rain
1:14 PM 51.8 °F 51.8 °F 100% 30.21 in 3.0 mi ESE 3.5 mph - 0.02 in Rain Light Rain
1:51 PM 51.8 °F 51.8 °F 100% 30.21 in 1.8 mi Calm Calm - 0.04 in Rain Light Rain
1:52 PM 51.1 °F 51.1 °F 100% 30.22 in 1.8 mi Calm Calm - 0.04 in Rain Light Rain
1:56 PM 51.8 °F 51.8 °F 100% 30.22 in 4.0 mi Calm Calm - 0.00 in Rain Light Rain
2:53 PM 53.1 °F 52.0 °F 96% 30.22 in 10.0 mi SSW 5.8 mph - 0.00 in   Overcast
3:53 PM 53.1 °F 51.1 °F 93% 30.22 in 10.0 mi South 5.8 mph - N/A   Overcast
4:53 PM 55.0 °F 51.1 °F 86% 30.23 in 10.0 mi SSW 5.8 mph - N/A   Mostly Cloudy
5:53 PM 53.1 °F 50.0 °F 89% 30.23 in 10.0 mi Calm Calm - N/A   Mostly Cloudy
6:53 PM 53.1 °F 48.9 °F 86% 30.23 in 10.0 mi SSW 3.5 mph - N/A   Overcast
7:53 PM 52.0 °F 48.9 °F 89% 30.23 in 10.0 mi ENE 4.6 mph - N/A   Overcast
8:53 PM 51.1 °F 51.1 °F 100% 30.24 in 4.0 mi Calm Calm - 0.01 in Rain Light Rain
9:03 PM 51.8 °F 51.8 °F 100% 30.23 in 3.0 mi South 3.5 mph - 0.01 in Rain Light Rain
9:53 PM 50.0 °F 50.0 °F 100% 30.22 in 4.0 mi SSE 4.6 mph - 0.01 in   Overcast
10:08 PM 50.0 °F 50.0 °F 100% 30.22 in 8.0 mi Calm Calm - N/A   Overcast
10:24 PM 50.0 °F 50.0 °F 100% 30.23 in 10.0 mi Calm Calm - N/A   Overcast
10:33 PM 50.0 °F 50.0 °F 100% 30.22 in 10.0 mi Calm Calm - N/A   Overcast
10:53 PM 50.0 °F 50.0 °F 100% 30.22 in 10.0 mi ENE 3.5 mph - N/A   Overcast
11:53 PM 50.0 °F 48.9 °F 96% 30.22 in 10.0 mi East 4.6 mph - N/A   Overcast